Time,TemperatureF,DewpointF,PressureIn,WindDirection,WindDirectionDegrees,WindSpeedMPH,WindSpeedGustMPH,Humidity,HourlyPrecipIn,Conditions,Clouds,dailyrainin,SoftwareType,DateUTC
2013-01-03 00:00:00,28.6,13.2,30.06,WNW,292,6.5,10.1,52,0.00,,SKC,0.00,VWS V14.01,2013-01-03 05:00:00,
2013-01-03 00:02:00,28.6,13.2,30.06,NW,315,8.5,9.6,52,0.00,,SKC,0.00,VWS V14.01,2013-01-03 05:02:00,
2013-01-03 00:07:00,28.6,13.2,30.06,NW,315,4.9,8.5,52,0.00,,SKC,0.00,VWS V14.01,2013-01-03 05:07:00,
2013-01-03 00:12:00,28.6,13.2,30.06,NW,315,6.5,10.3,52,0.00,,SKC,0.00,VWS V14.01,2013-01-03 05:12:00,
2013-01-03 00:17:00,28.6,13.2,30.09,NW,315,6.3,7.8,52,0.00,,SKC,0.00,VWS V14.01,2013-01-03 05:17:00,
2013-01-03 00:22:00,28.6,13.6,30.09,NW,315,5.6,8.5,53,0.00,,SKC,0.00,VWS V14.01,2013-01-03 05:22:00,
2013-01-03 00:27:00,28.6,13.6,30.09,NW,315,7.2,8.5,53,0.00,,SKC,0.00,VWS V14.01,2013-01-03 05:27:00,
2013-01-03 00:32:00,28.6,13.6,30.09,NW,315,5.6,8.7,53,0.00,,SKC,0.00,VWS V14.01,2013-01-03 05:32:00,
2013-01-03 00:37:00,28.6,13.6,30.09,NW,315,5.8,7.8,53,0.00,,SKC,0.00,VWS V14.01,2013-01-03 05:37:00,
2013-01-03 00:42:00,28.6,13.6,30.09,WNW,292,8.7,8.7,53,0.00,,SKC,0.00,VWS V14.01,2013-01-03 05:42:00,
2013-01-03 00:47:00,28.6,13.6,30.09,NNW,338,7.2,8.5,53,0.00,,SKC,0.00,VWS V14.01,2013-01-03 05:47:00,
2013-01-03 00:52:00,28.6,13.6,30.09,NW,315,7.4,10.1,53,0.00,,SKC,0.00,VWS V14.01,2013-01-03 05:52:00,
2013-01-03 00:57:00,28.6,13.6,30.09,NNW,338,8.5,8.5,53,0.00,,SKC,0.00,VWS V14.01,2013-01-03 05:57:00,
2013-01-03 01:03:00,28.6,13.6,30.06,NW,315,10.5,11.0,53,0.00,,SKC,0.00,VWS V14.01,2013-01-03 06:03:00,
2013-01-03 01:08:00,28.6,13.6,30.06,WNW,292,6.5,10.5,53,0.00,,SKC,0.00,VWS V14.01,2013-01-03 06:08:00,
2013-01-03 01:13:00,28.4,13.9,30.06,NW,315,6.5,7.2,54,0.00,,SKC,0.00,VWS V14.01,2013-01-03 06:13:00,
2013-01-03 01:18:00,28.4,13.9,30.06,NW,315,8.5,8.5,54,0.00,,SKC,0.00,VWS V14.01,2013-01-03 06:18:00,
2013-01-03 01:23:00,28.4,13.9,30.06,NW,315,9.2,12.3,54,0.00,,SKC,0.00,VWS V14.01,2013-01-03 06:23:00,
2013-01-03 01:30:00,28.2,13.7,30.06,NW,315,12.8,12.8,54,0.00,,SKC,0.00,VWS V14.01,2013-01-03 06:30:00,
2013-01-03 01:35:00,28.2,13.7,30.06,NW,315,7.2,9.0,54,0.00,,SKC,0.00,VWS V14.01,2013-01-03 06:35:00,
2013-01-03 01:40:00,28.2,13.7,30.06,West,270,7.2,10.3,54,0.00,,SKC,0.00,VWS V14.01,2013-01-03 06:40:00,
2013-01-03 01:46:00,28.0,13.6,30.09,NW,315,6.5,12.1,54,0.00,,SKC,0.00,VWS V14.01,2013-01-03 06:46:00,
2013-01-03 01:51:00,28.0,13.6,30.09,NW,315,9.8,9.8,54,0.00,,SKC,0.00,VWS V14.01,2013-01-03 06:51:00,
2013-01-03 01:56:00,27.9,13.4,30.09,NNW,338,7.4,8.5,54,0.00,,SKC,0.00,VWS V14.01,2013-01-03 06:56:00,
2013-01-03 02:01:00,27.7,13.2,30.09,NW,315,8.7,10.7,54,0.00,,SKC,0.00,VWS V14.01,2013-01-03 07:01:00,
2013-01-03 02:06:00,27.7,13.2,30.09,NW,315,8.1,13.0,54,0.00,,SKC,0.00,VWS V14.01,2013-01-03 07:06:00,
2013-01-03 02:11:00,27.5,13.1,30.09,NW,315,10.5,10.5,54,0.00,,SKC,0.00,VWS V14.01,2013-01-03 07:11:00,
2013-01-03 02:16:00,27.3,12.5,30.09,NW,315,8.1,9.8,53,0.00,,SKC,0.00,VWS V14.01,2013-01-03 07:16:00,
2013-01-03 02:21:00,27.3,12.5,30.09,NW,315,7.8,10.1,53,0.00,,SKC,0.00,VWS V14.01,2013-01-03 07:21:00,
2013-01-03 02:26:00,27.1,12.3,30.09,NW,315,10.5,10.5,53,0.00,,SKC,0.00,VWS V14.01,2013-01-03 07:26:00,
2013-01-03 02:31:00,27.0,12.1,30.09,NW,315,11.0,11.0,53,0.00,,SKC,0.00,VWS V14.01,2013-01-03 07:31:00,
2013-01-03 02:36:00,27.0,12.1,30.09,NNW,338,9.8,12.1,53,0.00,,SKC,0.00,VWS V14.01,2013-01-03 07:36:00,
2013-01-03 02:41:00,26.8,12.0,30.09,North,0,7.2,8.7,53,0.00,,SKC,0.00,VWS V14.01,2013-01-03 07:41:00,
2013-01-03 02:46:00,26.8,12.0,30.09,NW,315,8.7,12.8,53,0.00,,SKC,0.00,VWS V14.01,2013-01-03 07:46:00,
2013-01-03 02:51:00,26.6,11.8,30.09,NW,315,8.7,12.1,53,0.00,,SKC,0.00,VWS V14.01,2013-01-03 07:51:00,
2013-01-03 02:56:00,26.6,11.8,30.09,NW,315,8.1,8.7,53,0.00,,SKC,0.00,VWS V14.01,2013-01-03 07:56:00,
2013-01-03 03:01:00,26.4,11.6,30.06,NW,315,8.1,11.0,53,0.00,,SKC,0.00,VWS V14.01,2013-01-03 08:01:00,
2013-01-03 03:06:00,26.4,11.6,30.06,NW,315,7.6,10.3,53,0.00,,SKC,0.00,VWS V14.01,2013-01-03 08:06:00,
2013-01-03 03:11:00,26.2,11.4,30.06,NW,315,7.8,7.8,53,0.00,,SKC,0.00,VWS V14.01,2013-01-03 08:11:00,
2013-01-03 03:16:00,26.2,11.4,30.09,NNW,338,8.5,8.7,53,0.00,,SKC,0.00,VWS V14.01,2013-01-03 08:16:00,
2013-01-03 03:21:00,26.2,11.9,30.09,NNW,338,7.6,8.5,54,0.00,,SKC,0.00,VWS V14.01,2013-01-03 08:21:00,
2013-01-03 03:26:00,26.2,11.9,30.09,WNW,292,7.6,10.5,54,0.00,,SKC,0.00,VWS V14.01,2013-01-03 08:26:00,
2013-01-03 03:31:00,26.2,11.9,30.09,NW,315,5.4,9.0,54,0.00,,SKC,0.00,VWS V14.01,2013-01-03 08:31:00,
2013-01-03 03:36:00,26.2,11.9,30.09,NW,315,8.7,8.7,54,0.00,,SKC,0.00,VWS V14.01,2013-01-03 08:36:00,
2013-01-03 03:41:00,26.2,11.9,30.09,NW,315,6.0,10.7,54,0.00,,SKC,0.00,VWS V14.01,2013-01-03 08:41:00,
2013-01-03 03:46:00,26.2,11.9,30.09,WNW,292,7.6,10.7,54,0.00,,SKC,0.00,VWS V14.01,2013-01-03 08:46:00,
2013-01-03 03:51:00,26.2,11.9,30.09,NW,315,7.8,8.1,54,0.00,,SKC,0.00,VWS V14.01,2013-01-03 08:51:00,
2013-01-03 03:56:00,26.2,12.3,30.09,NW,315,6.3,9.6,55,0.00,,SKC,0.00,VWS V14.01,2013-01-03 08:56:00,
2013-01-03 04:01:00,26.2,12.3,30.09,NW,315,8.5,12.1,55,0.00,,SKC,0.00,VWS V14.01,2013-01-03 09:01:00,
2013-01-03 04:06:00,26.2,12.3,30.09,NW,315,8.1,8.5,55,0.00,,SKC,0.00,VWS V14.01,2013-01-03 09:06:00,
2013-01-03 04:11:00,26.1,12.1,30.09,NW,315,10.5,10.5,55,0.00,,SKC,0.00,VWS V14.01,2013-01-03 09:11:00,
2013-01-03 04:16:00,26.1,12.1,30.09,NW,315,6.5,10.3,55,0.00,,SKC,0.00,VWS V14.01,2013-01-03 09:16:00,
2013-01-03 04:21:00,26.1,11.7,30.09,NW,315,6.9,11.0,54,0.00,,SKC,0.00,VWS V14.01,2013-01-03 09:21:00,
2013-01-03 04:26:00,26.1,12.1,30.09,NW,315,6.5,10.1,55,0.00,,SKC,0.00,VWS V14.01,2013-01-03 09:26:00,
2013-01-03 04:31:00,25.9,11.9,30.09,NW,315,7.8,9.2,55,0.00,,SKC,0.00,VWS V14.01,2013-01-03 09:31:00,
2013-01-03 04:36:00,25.9,11.5,30.09,West,270,7.2,10.3,54,0.00,,SKC,0.00,VWS V14.01,2013-01-03 09:36:00,
2013-01-03 04:41:00,25.7,11.4,30.09,NW,315,4.9,9.6,54,0.00,,SKC,0.00,VWS V14.01,2013-01-03 09:41:00,
2013-01-03 04:46:00,25.7,11.8,30.06,NW,315,10.5,11.0,55,0.00,,SKC,0.00,VWS V14.01,2013-01-03 09:46:00,
2013-01-03 04:51:00,25.5,11.6,30.06,NW,315,7.6,10.1,55,0.00,,SKC,0.00,VWS V14.01,2013-01-03 09:51:00,
2013-01-03 04:56:00,25.3,11.0,30.06,NNW,338,8.1,8.7,54,0.00,,SKC,0.00,VWS V14.01,2013-01-03 09:56:00,
2013-01-03 05:01:00,25.3,11.0,30.06,NW,315,4.9,7.4,54,0.00,,SKC,0.00,VWS V14.01,2013-01-03 10:01:00,
2013-01-03 05:06:00,25.2,10.9,30.06,North,0,10.3,11.0,54,0.00,,SKC,0.00,VWS V14.01,2013-01-03 10:06:00,
2013-01-03 05:11:00,25.0,11.1,30.06,NW,315,6.0,9.4,55,0.00,,SKC,0.00,VWS V14.01,2013-01-03 10:11:00,
2013-01-03 05:16:00,24.8,10.9,30.09,NW,315,8.5,11.9,55,0.00,,SKC,0.00,VWS V14.01,2013-01-03 10:16:00,
2013-01-03 05:21:00,24.6,10.8,30.09,NW,315,6.0,8.7,55,0.00,,SKC,0.00,VWS V14.01,2013-01-03 10:21:00,
2013-01-03 05:26:00,24.4,10.2,30.09,NW,315,7.8,7.8,54,0.00,,SKC,0.00,VWS V14.01,2013-01-03 10:26:00,
2013-01-03 05:31:00,24.4,10.6,30.06,NW,315,7.6,9.2,55,0.00,,SKC,0.00,VWS V14.01,2013-01-03 10:31:00,
2013-01-03 05:36:00,24.3,10.4,30.06,NW,315,8.1,10.7,55,0.00,,SKC,0.00,VWS V14.01,2013-01-03 10:36:00,
2013-01-03 05:42:00,24.1,10.3,30.06,NNW,338,7.6,8.5,55,0.00,,SKC,0.00,VWS V14.01,2013-01-03 10:42:00,
2013-01-03 05:47:00,23.9,9.7,30.09,NW,315,8.1,10.3,54,0.00,,SKC,0.00,VWS V14.01,2013-01-03 10:47:00,
2013-01-03 05:52:00,23.7,9.5,30.09,NW,315,7.8,7.8,54,0.00,,SKC,0.00,VWS V14.01,2013-01-03 10:52:00,
2013-01-03 05:57:00,23.7,9.5,30.09,NW,315,8.5,10.1,54,0.00,,SKC,0.00,VWS V14.01,2013-01-03 10:57:00,
2013-01-03 06:02:00,23.5,9.4,30.09,NW,315,6.5,9.2,54,0.00,,SKC,0.00,VWS V14.01,2013-01-03 11:02:00,
2013-01-03 06:07:00,23.5,9.8,30.09,WNW,292,7.6,9.8,55,0.00,,SKC,0.00,VWS V14.01,2013-01-03 11:07:00,
2013-01-03 06:12:00,23.4,9.2,30.09,NW,315,7.4,7.8,54,0.00,,SKC,0.00,VWS V14.01,2013-01-03 11:12:00,
2013-01-03 06:17:00,23.4,9.2,30.09,WNW,292,5.4,8.1,54,0.00,,SKC,0.00,VWS V14.01,2013-01-03 11:17:00,
2013-01-03 06:22:00,23.0,8.9,30.09,NW,315,6.5,10.5,54,0.00,,SKC,0.00,VWS V14.01,2013-01-03 11:22:00,
2013-01-03 06:27:00,23.0,9.2,30.09,NW,315,5.8,7.8,55,0.00,,SKC,0.00,VWS V14.01,2013-01-03 11:27:00,
2013-01-03 06:32:00,23.0,8.9,30.09,NNW,338,11.0,11.0,54,0.00,,SKC,0.00,VWS V14.01,2013-01-03 11:32:00,
2013-01-03 06:37:00,22.8,8.7,30.09,NNW,338,7.8,8.7,54,0.00,,SKC,0.00,VWS V14.01,2013-01-03 11:37:00,
2013-01-03 06:42:00,22.6,8.5,30.09,NW,315,6.0,7.6,54,0.00,,SKC,0.00,VWS V14.01,2013-01-03 11:42:00,
2013-01-03 06:47:00,22.6,8.5,30.06,NW,315,7.6,9.6,54,0.00,,SKC,0.00,VWS V14.01,2013-01-03 11:47:00,
2013-01-03 06:52:00,22.6,8.5,30.06,NNW,338,7.8,8.5,54,0.00,,SKC,0.00,VWS V14.01,2013-01-03 11:52:00,
2013-01-03 06:57:00,22.5,8.3,30.06,NW,315,8.1,8.1,54,0.00,,SKC,0.00,VWS V14.01,2013-01-03 11:57:00,
2013-01-03 07:02:00,22.5,8.3,30.09,NW,315,8.5,10.1,54,0.00,,SKC,0.00,VWS V14.01,2013-01-03 12:02:00,
2013-01-03 07:07:00,22.3,8.2,30.09,WNW,292,8.7,10.1,54,0.00,,SKC,0.00,VWS V14.01,2013-01-03 12:07:00,
2013-01-03 07:12:00,22.3,8.2,30.09,WNW,292,9.2,9.2,54,0.00,,SKC,0.00,VWS V14.01,2013-01-03 12:12:00,
2013-01-03 07:17:00,22.3,8.2,30.06,WNW,292,7.6,8.7,54,0.00,,SKC,0.00,VWS V14.01,2013-01-03 12:17:00,
2013-01-03 07:22:00,22.1,8.0,30.06,NW,315,6.3,10.3,54,0.00,,SKC,0.00,VWS V14.01,2013-01-03 12:22:00,
2013-01-03 07:27:00,22.1,8.0,30.06,West,270,7.8,9.8,54,0.00,,SKC,0.00,VWS V14.01,2013-01-03 12:27:00,
2013-01-03 07:32:00,21.9,7.8,30.06,NW,315,5.8,8.5,54,0.00,,SKC,0.00,VWS V14.01,2013-01-03 12:32:00,
2013-01-03 07:37:00,21.9,7.8,30.06,NW,315,5.8,8.5,54,0.00,,SKC,0.00,VWS V14.01,2013-01-03 12:37:00,
2013-01-03 07:42:00,21.9,7.8,30.06,NNW,338,8.1,10.1,54,0.00,,SKC,0.00,VWS V14.01,2013-01-03 12:42:00,
2013-01-03 07:47:00,21.7,7.7,30.09,NW,315,6.3,10.1,54,0.00,,SKC,0.00,VWS V14.01,2013-01-03 12:47:00,
2013-01-03 07:52:00,21.7,7.7,30.09,NW,315,7.6,9.0,54,0.00,,SKC,0.00,VWS V14.01,2013-01-03 12:52:00,
2013-01-03 07:57:00,21.7,8.1,30.09,North,0,6.9,7.4,55,0.00,,SKC,0.00,VWS V14.01,2013-01-03 12:57:00,
2013-01-03 08:02:00,21.7,8.1,30.09,NNW,338,7.6,9.8,55,0.00,,SKC,0.00,VWS V14.01,2013-01-03 13:02:00,
2013-01-03 08:07:00,21.7,8.1,30.09,NW,315,7.4,10.1,55,0.00,,SKC,0.00,VWS V14.01,2013-01-03 13:07:00,
2013-01-03 08:12:00,21.9,8.2,30.09,NW,315,8.1,10.5,55,0.00,,SKC,0.00,VWS V14.01,2013-01-03 13:12:00,
2013-01-03 08:17:00,21.7,8.1,30.09,NW,315,6.7,10.5,55,0.00,,SKC,0.00,VWS V14.01,2013-01-03 13:17:00,
2013-01-03 08:22:00,21.9,8.2,30.09,NW,315,5.6,8.5,55,0.00,,SKC,0.00,VWS V14.01,2013-01-03 13:22:00,
2013-01-03 08:27:00,21.9,8.2,30.09,WNW,292,7.8,8.7,55,0.00,,SKC,0.00,VWS V14.01,2013-01-03 13:27:00,
2013-01-03 08:32:00,21.9,8.6,30.09,WNW,292,5.4,5.8,56,0.00,,SKC,0.00,VWS V14.01,2013-01-03 13:32:00,
2013-01-03 08:37:00,21.9,8.6,30.09,NW,315,6.5,8.7,56,0.00,,SKC,0.00,VWS V14.01,2013-01-03 13:37:00,
2013-01-03 08:42:00,21.9,8.6,30.09,West,270,5.4,6.3,56,0.00,,SKC,0.00,VWS V14.01,2013-01-03 13:42:00,
2013-01-03 08:47:00,22.1,8.8,30.06,NW,315,5.6,8.5,56,0.00,,SKC,0.00,VWS V14.01,2013-01-03 13:47:00,
2013-01-03 08:52:00,22.1,8.8,30.06,WNW,292,5.4,8.7,56,0.00,,SKC,0.00,VWS V14.01,2013-01-03 13:52:00,
2013-01-03 08:57:00,22.3,9.0,30.06,NW,315,6.5,7.6,56,0.00,,SKC,0.00,VWS V14.01,2013-01-03 13:57:00,
2013-01-03 09:02:00,22.3,9.0,30.06,NW,315,7.2,7.8,56,0.00,,SKC,0.00,VWS V14.01,2013-01-03 14:02:00,
2013-01-03 09:07:00,22.5,9.1,30.06,NW,315,6.3,7.6,56,0.00,,SKC,0.00,VWS V14.01,2013-01-03 14:07:00,
2013-01-03 09:12:00,22.3,9.4,30.06,NNW,338,8.7,10.1,57,0.00,,SKC,0.00,VWS V14.01,2013-01-03 14:12:00,
2013-01-03 09:17:00,22.3,9.0,30.09,NW,315,4.3,8.1,56,0.00,,SKC,0.00,VWS V14.01,2013-01-03 14:17:00,
2013-01-03 09:22:00,22.3,9.4,30.09,West,270,5.4,7.8,57,0.00,,SKC,0.00,VWS V14.01,2013-01-03 14:22:00,
2013-01-03 09:27:00,22.6,9.7,30.09,NNW,338,7.6,8.7,57,0.00,,SKC,0.00,VWS V14.01,2013-01-03 14:27:00,
2013-01-03 09:32:00,22.6,9.7,30.09,NW,315,9.8,9.8,57,0.00,,SKC,0.00,VWS V14.01,2013-01-03 14:32:00,
2013-01-03 09:37:00,22.6,9.7,30.09,NW,315,8.5,8.5,57,0.00,,SKC,0.00,VWS V14.01,2013-01-03 14:37:00,
2013-01-03 09:42:00,22.8,9.9,30.09,NW,315,6.3,9.0,57,0.00,,SKC,0.00,VWS V14.01,2013-01-03 14:42:00,
2013-01-03 09:47:00,23.0,10.4,30.09,NW,315,10.5,10.5,58,0.00,,SKC,0.00,VWS V14.01,2013-01-03 14:47:00,
2013-01-03 09:52:00,23.0,10.1,30.09,WNW,292,7.6,7.8,57,0.00,,SKC,0.00,VWS V14.01,2013-01-03 14:52:00,
2013-01-03 09:57:00,23.2,10.2,30.09,NNW,338,4.3,8.7,57,0.00,,SKC,0.00,VWS V14.01,2013-01-03 14:57:00,
2013-01-03 10:02:00,23.2,10.2,30.12,WNW,292,7.8,7.8,57,0.00,,SKC,0.00,VWS V14.01,2013-01-03 15:02:00,
2013-01-03 10:07:00,23.2,10.2,30.12,NW,315,8.7,10.7,57,0.00,,SKC,0.00,VWS V14.01,2013-01-03 15:07:00,
2013-01-03 10:12:00,23.4,10.4,30.12,WNW,292,8.5,8.5,57,0.00,,SKC,0.00,VWS V14.01,2013-01-03 15:12:00,
2013-01-03 10:17:00,23.5,10.9,30.09,NW,315,5.8,8.1,58,0.00,,SKC,0.00,VWS V14.01,2013-01-03 15:17:00,
2013-01-03 10:22:00,24.1,11.5,30.09,NNW,338,9.2,10.1,58,0.00,,SKC,0.00,VWS V14.01,2013-01-03 15:22:00,
2013-01-03 10:27:00,24.1,11.5,30.09,NNW,338,7.6,9.6,58,0.00,,SKC,0.00,VWS V14.01,2013-01-03 15:27:00,
2013-01-03 10:32:00,24.1,11.5,30.09,North,0,5.4,8.1,58,0.00,,SKC,0.00,VWS V14.01,2013-01-03 15:32:00,
2013-01-03 10:37:00,24.3,12.0,30.09,NW,315,5.6,7.4,59,0.00,,SKC,0.00,VWS V14.01,2013-01-03 15:37:00,
2013-01-03 10:42:00,24.4,12.2,30.09,West,270,6.5,10.1,59,0.00,,SKC,0.00,VWS V14.01,2013-01-03 15:42:00,
2013-01-03 10:47:00,24.4,11.8,30.09,WNW,292,7.4,10.7,58,0.00,,SKC,0.00,VWS V14.01,2013-01-03 15:47:00,
2013-01-03 10:52:00,24.4,11.8,30.09,WNW,292,7.2,8.5,58,0.00,,SKC,0.00,VWS V14.01,2013-01-03 15:52:00,
2013-01-03 10:57:00,24.6,12.0,30.09,NW,315,7.2,8.5,58,0.00,,SKC,0.00,VWS V14.01,2013-01-03 15:57:00,
2013-01-03 11:02:00,24.8,12.1,30.09,NW,315,8.7,11.0,58,0.00,,SKC,0.00,VWS V14.01,2013-01-03 16:02:00,
2013-01-03 11:07:00,24.8,12.1,30.09,NW,315,6.0,8.1,58,0.00,,SKC,0.00,VWS V14.01,2013-01-03 16:07:00,
2013-01-03 11:12:00,25.2,12.1,30.09,NW,315,6.3,8.7,57,0.00,,SKC,0.00,VWS V14.01,2013-01-03 16:12:00,
2013-01-03 11:17:00,25.2,12.1,30.09,NNW,338,5.4,8.7,57,0.00,,SKC,0.00,VWS V14.01,2013-01-03 16:17:00,
2013-01-03 11:22:00,25.2,12.1,30.09,NNW,338,9.8,9.8,57,0.00,,SKC,0.00,VWS V14.01,2013-01-03 16:22:00,
2013-01-03 11:28:00,25.2,12.1,30.09,NW,315,8.1,10.7,57,0.00,,SKC,0.00,VWS V14.01,2013-01-03 16:28:00,
2013-01-03 11:33:00,25.5,12.4,30.09,NW,315,6.0,8.7,57,0.00,,SKC,0.00,VWS V14.01,2013-01-03 16:33:00,
2013-01-03 11:38:00,25.3,11.9,30.09,NW,315,6.7,11.2,56,0.00,,SKC,0.00,VWS V14.01,2013-01-03 16:38:00,
2013-01-03 11:43:00,25.3,11.9,30.09,NW,315,9.6,9.6,56,0.00,,SKC,0.00,VWS V14.01,2013-01-03 16:43:00,
2013-01-03 11:48:00,25.3,11.9,30.06,NW,315,8.5,9.6,56,0.00,,SKC,0.00,VWS V14.01,2013-01-03 16:48:00,
2013-01-03 11:53:00,25.5,12.0,30.06,NW,315,5.6,7.8,56,0.00,,SKC,0.00,VWS V14.01,2013-01-03 16:53:00,
2013-01-03 11:58:00,25.7,12.2,30.06,NW,315,8.5,10.1,56,0.00,,SKC,0.00,VWS V14.01,2013-01-03 16:58:00,
2013-01-03 12:03:00,25.9,12.4,30.06,NW,315,9.8,9.8,56,0.00,,SKC,0.00,VWS V14.01,2013-01-03 17:03:00,
2013-01-03 12:08:00,26.1,12.5,30.06,WNW,292,12.5,12.5,56,0.00,,SKC,0.00,VWS V14.01,2013-01-03 17:08:00,
2013-01-03 12:13:00,26.1,12.5,30.06,NW,315,9.6,9.6,56,0.00,,SKC,0.00,VWS V14.01,2013-01-03 17:13:00,
2013-01-03 12:18:00,25.9,12.4,30.06,NW,315,6.9,7.4,56,0.00,,SKC,0.00,VWS V14.01,2013-01-03 17:18:00,
2013-01-03 12:23:00,25.9,12.4,30.06,WNW,292,7.6,8.5,56,0.00,,SKC,0.00,VWS V14.01,2013-01-03 17:23:00,
2013-01-03 12:28:00,25.9,12.4,30.06,WNW,292,6.0,6.5,56,0.00,,SKC,0.00,VWS V14.01,2013-01-03 17:28:00,
2013-01-03 12:33:00,25.9,12.4,30.03,West,270,8.7,8.7,56,0.00,,SKC,0.00,VWS V14.01,2013-01-03 17:33:00,
2013-01-03 12:38:00,26.1,12.5,30.03,West,270,7.8,7.8,56,0.00,,SKC,0.00,VWS V14.01,2013-01-03 17:38:00,
2013-01-03 12:43:00,26.2,12.7,30.03,WNW,292,7.6,9.2,56,0.00,,SKC,0.00,VWS V14.01,2013-01-03 17:43:00,
2013-01-03 12:48:00,26.4,12.9,30.03,WNW,292,13.2,13.2,56,0.00,,SKC,0.00,VWS V14.01,2013-01-03 17:48:00,
2013-01-03 12:53:00,26.4,12.9,30.03,NW,315,4.9,7.2,56,0.00,,SKC,0.00,VWS V14.01,2013-01-03 17:53:00,
2013-01-03 12:58:00,26.4,12.9,30.00,West,270,7.6,10.5,56,0.00,,SKC,0.00,VWS V14.01,2013-01-03 17:58:00,
2013-01-03 13:03:00,26.6,13.0,30.00,NW,315,7.6,10.1,56,0.00,,SKC,0.00,VWS V14.01,2013-01-03 18:03:00,
2013-01-03 13:08:00,26.6,13.0,30.00,WNW,292,10.5,11.2,56,0.00,,SKC,0.00,VWS V14.01,2013-01-03 18:08:00,
2013-01-03 13:13:00,26.6,13.0,30.03,WNW,292,6.7,7.8,56,0.00,,SKC,0.00,VWS V14.01,2013-01-03 18:13:00,
2013-01-03 13:18:00,26.8,12.8,30.03,WNW,292,6.7,8.5,55,0.00,,SKC,0.00,VWS V14.01,2013-01-03 18:18:00,
2013-01-03 13:23:00,26.6,13.0,30.03,NW,315,4.0,8.1,56,0.00,,SKC,0.00,VWS V14.01,2013-01-03 18:23:00,
2013-01-03 13:28:00,26.8,12.8,30.03,NW,315,7.8,9.8,55,0.00,,SKC,0.00,VWS V14.01,2013-01-03 18:28:00,
2013-01-03 13:33:00,27.0,13.0,30.03,West,270,6.0,8.1,55,0.00,,SKC,0.00,VWS V14.01,2013-01-03 18:33:00,
2013-01-03 13:38:00,27.0,13.4,30.03,WNW,292,6.5,9.8,56,0.00,,SKC,0.00,VWS V14.01,2013-01-03 18:38:00,
2013-01-03 13:43:00,27.0,13.4,30.03,WSW,248,7.4,8.5,56,0.00,,SKC,0.00,VWS V14.01,2013-01-03 18:43:00,
2013-01-03 13:48:00,27.0,13.4,30.03,West,270,6.0,6.3,56,0.00,,SKC,0.00,VWS V14.01,2013-01-03 18:48:00,
2013-01-03 13:53:00,27.1,13.5,30.03,West,270,5.6,6.5,56,0.00,,SKC,0.00,VWS V14.01,2013-01-03 18:53:00,
2013-01-03 13:58:00,27.3,13.7,30.03,NW,315,5.6,10.7,56,0.00,,SKC,0.00,VWS V14.01,2013-01-03 18:58:00,
2013-01-03 14:03:00,27.3,13.7,30.03,NW,315,8.1,8.1,56,0.00,,SKC,0.00,VWS V14.01,2013-01-03 19:03:00,
2013-01-03 14:08:00,27.5,13.9,30.03,West,270,8.5,10.5,56,0.00,,SKC,0.00,VWS V14.01,2013-01-03 19:08:00,
2013-01-03 14:13:00,27.9,14.2,30.03,WNW,292,3.6,8.7,56,0.00,,SKC,0.00,VWS V14.01,2013-01-03 19:13:00,
2013-01-03 14:18:00,27.9,14.2,30.03,WNW,292,7.6,8.5,56,0.00,,SKC,0.00,VWS V14.01,2013-01-03 19:18:00,
2013-01-03 14:54:00,28.6,14.1,30.03,WNW,292,7.8,10.1,54,0.00,,SKC,0.00,VWS V14.01,2013-01-03 19:54:00,
2013-01-03 14:59:00,28.6,13.6,30.03,West,270,7.6,8.5,53,0.00,,SKC,0.00,VWS V14.01,2013-01-03 19:59:00,
2013-01-03 15:04:00,28.6,13.6,30.03,West,270,7.6,13.0,53,0.00,,SKC,0.00,VWS V14.01,2013-01-03 20:04:00,
2013-01-03 15:09:00,28.6,13.6,30.03,WNW,292,6.5,8.5,53,0.00,,SKC,0.00,VWS V14.01,2013-01-03 20:09:00,
2013-01-03 15:14:00,28.6,14.1,30.00,West,270,5.4,9.2,54,0.00,,SKC,0.00,VWS V14.01,2013-01-03 20:14:00,
2013-01-03 15:19:00,28.8,14.2,30.00,West,270,7.6,7.6,54,0.00,,SKC,0.00,VWS V14.01,2013-01-03 20:19:00,
2013-01-03 15:24:00,28.8,13.8,30.00,WNW,292,5.4,6.0,53,0.00,,SKC,0.00,VWS V14.01,2013-01-03 20:24:00,
2013-01-03 15:29:00,28.8,14.2,30.03,NW,315,4.9,6.0,54,0.00,,SKC,0.00,VWS V14.01,2013-01-03 20:29:00,
2013-01-03 15:34:00,28.8,13.8,30.03,West,270,5.6,8.1,53,0.00,,SKC,0.00,VWS V14.01,2013-01-03 20:34:00,
2013-01-03 15:39:00,28.8,13.8,30.03,West,270,6.3,8.7,53,0.00,,SKC,0.00,VWS V14.01,2013-01-03 20:39:00,
2013-01-03 15:44:00,28.6,13.6,30.00,West,270,5.8,7.4,53,0.00,,SKC,0.00,VWS V14.01,2013-01-03 20:44:00,
2013-01-03 15:49:00,28.6,13.6,30.00,West,270,4.9,9.8,53,0.00,,SKC,0.00,VWS V14.01,2013-01-03 20:49:00,
2013-01-03 15:54:00,28.6,13.6,30.00,West,270,7.2,10.1,53,0.00,,SKC,0.00,VWS V14.01,2013-01-03 20:54:00,
2013-01-03 15:59:00,28.6,13.6,30.00,West,270,7.8,9.0,53,0.00,,SKC,0.00,VWS V14.01,2013-01-03 20:59:00,
2013-01-03 16:04:00,28.6,13.6,30.00,WNW,292,8.1,8.5,53,0.00,,SKC,0.00,VWS V14.01,2013-01-03 21:04:00,
2013-01-03 16:09:00,28.4,13.5,30.00,WNW,292,9.4,10.3,53,0.00,,SKC,0.00,VWS V14.01,2013-01-03 21:09:00,
2013-01-03 16:14:00,28.4,13.5,30.00,WNW,292,4.3,6.3,53,0.00,,SKC,0.00,VWS V14.01,2013-01-03 21:14:00,
2013-01-03 16:19:00,28.2,13.3,30.00,NW,315,7.8,10.5,53,0.00,,SKC,0.00,VWS V14.01,2013-01-03 21:19:00,
2013-01-03 16:24:00,28.0,13.1,30.00,WNW,292,8.1,8.5,53,0.00,,SKC,0.00,VWS V14.01,2013-01-03 21:24:00,
2013-01-03 16:29:00,28.0,13.1,30.00,WNW,292,4.9,7.6,53,0.00,,SKC,0.00,VWS V14.01,2013-01-03 21:29:00,
2013-01-03 16:34:00,27.9,13.0,30.00,NW,315,6.0,7.8,53,0.00,,SKC,0.00,VWS V14.01,2013-01-03 21:34:00,
2013-01-03 16:39:00,27.9,13.0,30.00,WNW,292,5.4,5.6,53,0.00,,SKC,0.00,VWS V14.01,2013-01-03 21:39:00,
2013-01-03 16:45:00,27.9,13.0,30.00,West,270,10.3,10.3,53,0.00,,SKC,0.00,VWS V14.01,2013-01-03 21:45:00,
2013-01-03 16:50:00,27.7,12.8,30.00,West,270,3.1,9.8,53,0.00,,SKC,0.00,VWS V14.01,2013-01-03 21:50:00,
2013-01-03 16:55:00,27.7,12.8,30.00,NW,315,7.4,9.6,53,0.00,,SKC,0.00,VWS V14.01,2013-01-03 21:55:00,
2013-01-03 17:00:00,27.7,12.8,30.03,West,270,9.4,10.7,53,0.00,,SKC,0.00,VWS V14.01,2013-01-03 22:00:00,
2013-01-03 17:05:00,27.7,12.8,30.03,WNW,292,5.8,8.7,53,0.00,,SKC,0.00,VWS V14.01,2013-01-03 22:05:00,
2013-01-03 17:10:00,27.7,12.8,30.03,West,270,3.6,5.8,53,0.00,,SKC,0.00,VWS V14.01,2013-01-03 22:10:00,
2013-01-03 17:15:00,27.5,12.6,30.03,WNW,292,3.4,4.3,53,0.00,,SKC,0.00,VWS V14.01,2013-01-03 22:15:00,
2013-01-03 17:20:00,27.5,12.6,30.03,WNW,292,3.6,7.2,53,0.00,,SKC,0.00,VWS V14.01,2013-01-03 22:20:00,
2013-01-03 17:25:00,27.3,12.5,30.03,WNW,292,6.5,6.5,53,0.00,,SKC,0.00,VWS V14.01,2013-01-03 22:25:00,
2013-01-03 17:30:00,27.5,12.6,30.03,NW,315,6.3,8.7,53,0.00,,SKC,0.00,VWS V14.01,2013-01-03 22:30:00,
2013-01-03 17:35:00,27.3,12.9,30.03,NW,315,4.0,7.8,54,0.00,,SKC,0.00,VWS V14.01,2013-01-03 22:35:00,
2013-01-03 17:40:00,27.3,12.9,30.03,NW,315,4.0,8.1,54,0.00,,SKC,0.00,VWS V14.01,2013-01-03 22:40:00,
2013-01-03 17:45:00,27.3,12.9,30.03,NW,315,5.8,7.2,54,0.00,,SKC,0.00,VWS V14.01,2013-01-03 22:45:00,
2013-01-03 17:50:00,27.3,12.9,30.03,WNW,292,9.8,9.8,54,0.00,,SKC,0.00,VWS V14.01,2013-01-03 22:50:00,
2013-01-03 17:55:00,27.5,13.1,30.03,WNW,292,4.5,8.7,54,0.00,,SKC,0.00,VWS V14.01,2013-01-03 22:55:00,
2013-01-03 18:00:00,27.5,13.1,30.03,NW,315,5.8,7.6,54,0.00,,SKC,0.00,VWS V14.01,2013-01-03 23:00:00,
2013-01-03 18:05:00,27.7,13.2,30.03,WNW,292,6.3,7.6,54,0.00,,SKC,0.00,VWS V14.01,2013-01-03 23:05:00,
2013-01-03 18:10:00,27.7,13.2,30.03,West,270,4.7,6.3,54,0.00,,SKC,0.00,VWS V14.01,2013-01-03 23:10:00,
2013-01-03 18:15:00,27.7,13.2,30.03,West,270,2.5,3.4,54,0.00,,SKC,0.00,VWS V14.01,2013-01-03 23:15:00,
2013-01-03 18:20:00,27.7,13.2,30.03,WNW,292,3.4,5.6,54,0.00,,SKC,0.00,VWS V14.01,2013-01-03 23:20:00,
2013-01-03 18:25:00,27.5,13.1,30.03,West,270,8.1,8.5,54,0.00,,SKC,0.00,VWS V14.01,2013-01-03 23:25:00,
2013-01-03 18:30:00,27.5,13.1,30.03,West,270,2.2,2.7,54,0.00,,SKC,0.00,VWS V14.01,2013-01-03 23:30:00,
2013-01-03 18:35:00,27.3,12.9,30.03,SW,225,3.1,3.8,54,0.00,,SKC,0.00,VWS V14.01,2013-01-03 23:35:00,
2013-01-03 18:40:00,27.1,12.7,30.03,SW,225,2.5,2.9,54,0.00,,SKC,0.00,VWS V14.01,2013-01-03 23:40:00,
2013-01-03 18:45:00,27.0,12.6,30.03,WSW,248,2.5,2.7,54,0.00,,SKC,0.00,VWS V14.01,2013-01-03 23:45:00,
2013-01-03 18:50:00,26.6,12.2,30.03,SW,225,2.5,2.9,54,0.00,,SKC,0.00,VWS V14.01,2013-01-03 23:50:00,
2013-01-03 18:55:00,26.4,12.0,30.03,WSW,248,2.5,2.7,54,0.00,,SKC,0.00,VWS V14.01,2013-01-03 23:55:00,
2013-01-03 19:00:00,26.2,12.3,30.03,SW,225,0.9,2.7,55,0.00,,SKC,0.00,VWS V14.01,2013-01-04 00:00:00,
2013-01-03 19:05:00,26.1,12.1,30.03,SW,225,1.6,2.0,55,0.00,,SKC,0.00,VWS V14.01,2013-01-04 00:05:00,
2013-01-03 19:10:00,25.9,11.9,30.03,SW,225,1.6,1.6,55,0.00,,SKC,0.00,VWS V14.01,2013-01-04 00:10:00,
2013-01-03 19:15:00,25.7,11.8,30.03,SW,225,1.3,2.2,55,0.00,,SKC,0.00,VWS V14.01,2013-01-04 00:15:00,
2013-01-03 19:20:00,25.3,11.4,30.03,SW,225,2.5,3.6,55,0.00,,SKC,0.00,VWS V14.01,2013-01-04 00:20:00,
2013-01-03 19:25:00,25.3,11.4,30.03,SW,225,2.9,3.4,55,0.00,,SKC,0.00,VWS V14.01,2013-01-04 00:25:00,
2013-01-03 19:30:00,25.2,11.3,30.03,SW,225,2.5,3.6,55,0.00,,SKC,0.00,VWS V14.01,2013-01-04 00:30:00,
2013-01-03 19:35:00,25.2,11.3,30.03,WSW,248,2.7,3.4,55,0.00,,SKC,0.00,VWS V14.01,2013-01-04 00:35:00,
2013-01-03 19:40:00,25.0,11.1,30.03,SW,225,2.9,3.8,55,0.00,,SKC,0.00,VWS V14.01,2013-01-04 00:40:00,
2013-01-03 19:45:00,25.2,11.3,30.03,WSW,248,2.9,3.8,55,0.00,,SKC,0.00,VWS V14.01,2013-01-04 00:45:00,
2013-01-03 19:50:00,25.3,11.4,30.03,SW,225,2.0,4.0,55,0.00,,SKC,0.00,VWS V14.01,2013-01-04 00:50:00,
2013-01-03 19:55:00,25.5,12.0,30.03,WSW,248,3.6,3.6,56,0.00,,SKC,0.00,VWS V14.01,2013-01-04 00:55:00,
2013-01-03 20:00:00,25.7,12.2,30.03,SW,225,2.2,2.2,56,0.00,,SKC,0.00,VWS V14.01,2013-01-04 01:00:00,
2013-01-03 20:05:00,25.9,12.4,30.03,SW,225,2.0,3.1,56,0.00,,SKC,0.00,VWS V14.01,2013-01-04 01:05:00,
2013-01-03 20:10:00,26.1,12.5,30.03,WSW,248,3.4,3.6,56,0.00,,SKC,0.00,VWS V14.01,2013-01-04 01:10:00,
2013-01-03 20:15:00,26.2,12.7,30.00,SW,225,2.5,4.0,56,0.00,,SKC,0.00,VWS V14.01,2013-01-04 01:15:00,
2013-01-03 20:20:00,26.4,12.9,30.00,SW,225,2.9,2.9,56,0.00,,SKC,0.00,VWS V14.01,2013-01-04 01:20:00,
2013-01-03 20:25:00,26.4,12.9,30.00,SW,225,2.9,2.9,56,0.00,,SKC,0.00,VWS V14.01,2013-01-04 01:25:00,
2013-01-03 20:30:00,26.6,13.0,30.00,SW,225,3.1,3.4,56,0.00,,SKC,0.00,VWS V14.01,2013-01-04 01:30:00,
2013-01-03 20:35:00,26.8,12.8,30.00,SW,225,2.7,2.9,55,0.00,,SKC,0.00,VWS V14.01,2013-01-04 01:35:00,
2013-01-03 20:40:00,27.0,13.0,30.00,SW,225,5.8,5.8,55,0.00,,SKC,0.00,VWS V14.01,2013-01-04 01:40:00,
2013-01-03 20:45:00,27.0,13.0,30.03,WSW,248,3.6,5.8,55,0.00,,SKC,0.00,VWS V14.01,2013-01-04 01:45:00,
2013-01-03 20:50:00,27.1,13.1,30.03,WSW,248,5.8,5.8,55,0.00,,SKC,0.00,VWS V14.01,2013-01-04 01:50:00,
2013-01-03 20:55:00,27.3,13.3,30.03,WSW,248,6.0,6.5,55,0.00,,SKC,0.00,VWS V14.01,2013-01-04 01:55:00,
2013-01-03 21:00:00,27.5,13.5,30.00,SW,225,5.8,6.5,55,0.00,,SKC,0.00,VWS V14.01,2013-01-04 02:00:00,
2013-01-03 21:05:00,27.7,13.6,30.00,WSW,248,4.9,7.6,55,0.00,,SKC,0.00,VWS V14.01,2013-01-04 02:05:00,
2013-01-03 21:10:00,27.9,13.8,30.00,WSW,248,5.6,8.1,55,0.00,,SKC,0.00,VWS V14.01,2013-01-04 02:10:00,
2013-01-03 21:15:00,27.9,13.8,30.03,West,270,5.4,6.5,55,0.00,,SKC,0.00,VWS V14.01,2013-01-04 02:15:00,
2013-01-03 21:20:00,27.9,13.8,30.03,West,270,5.8,7.8,55,0.00,,SKC,0.00,VWS V14.01,2013-01-04 02:20:00,
2013-01-03 21:25:00,27.9,13.8,30.03,WSW,248,8.7,8.7,55,0.00,,SKC,0.00,VWS V14.01,2013-01-04 02:25:00,
2013-01-03 21:30:00,27.9,13.8,30.03,WSW,248,5.8,7.4,55,0.00,,SKC,0.00,VWS V14.01,2013-01-04 02:30:00,
2013-01-03 21:35:00,27.9,13.8,30.03,SW,225,5.4,7.4,55,0.00,,SKC,0.00,VWS V14.01,2013-01-04 02:35:00,
2013-01-03 21:40:00,27.7,13.6,30.03,WSW,248,6.0,8.7,55,0.00,,SKC,0.00,VWS V14.01,2013-01-04 02:40:00,
2013-01-03 21:45:00,27.5,13.5,30.00,WSW,248,5.4,6.0,55,0.00,,SKC,0.00,VWS V14.01,2013-01-04 02:45:00,
2013-01-03 21:50:00,27.5,13.5,30.00,SW,225,5.6,6.3,55,0.00,,SKC,0.00,VWS V14.01,2013-01-04 02:50:00,
2013-01-03 21:55:00,27.3,13.3,30.00,WSW,248,3.6,6.7,55,0.00,,SKC,0.00,VWS V14.01,2013-01-04 02:55:00,
2013-01-03 22:00:00,27.3,13.3,30.00,SW,225,3.8,7.4,55,0.00,,SKC,0.00,VWS V14.01,2013-01-04 03:00:00,
2013-01-03 22:05:00,27.1,13.1,30.00,WSW,248,4.0,5.6,55,0.00,,SKC,0.00,VWS V14.01,2013-01-04 03:05:00,
2013-01-03 22:10:00,27.1,13.1,30.00,SW,225,4.0,5.8,55,0.00,,SKC,0.00,VWS V14.01,2013-01-04 03:10:00,
2013-01-03 22:15:00,27.1,13.1,30.00,SW,225,5.8,6.5,55,0.00,,SKC,0.00,VWS V14.01,2013-01-04 03:15:00,
2013-01-03 22:20:00,27.0,13.0,30.00,SW,225,6.5,6.9,55,0.00,,SKC,0.00,VWS V14.01,2013-01-04 03:20:00,
2013-01-03 22:25:00,27.0,13.0,30.00,WSW,248,5.8,7.6,55,0.00,,SKC,0.00,VWS V14.01,2013-01-04 03:25:00,
2013-01-03 22:30:00,27.1,13.1,30.00,WSW,248,6.0,8.5,55,0.00,,SKC,0.00,VWS V14.01,2013-01-04 03:30:00,
2013-01-03 22:35:00,27.3,13.3,30.00,WSW,248,7.6,7.6,55,0.00,,SKC,0.00,VWS V14.01,2013-01-04 03:35:00,
2013-01-03 22:40:00,27.5,13.5,30.00,West,270,7.6,10.3,55,0.00,,SKC,0.00,VWS V14.01,2013-01-04 03:40:00,
2013-01-03 22:46:00,27.9,13.8,30.00,WSW,248,8.1,10.5,55,0.00,,SKC,0.00,VWS V14.01,2013-01-04 03:46:00,
2013-01-03 22:51:00,27.9,13.8,30.00,WSW,248,8.1,8.1,55,0.00,,SKC,0.00,VWS V14.01,2013-01-04 03:51:00,
2013-01-03 22:56:00,27.9,13.8,30.00,SW,225,6.0,9.8,55,0.00,,SKC,0.00,VWS V14.01,2013-01-04 03:56:00,
2013-01-03 23:01:00,28.0,14.0,30.00,West,270,5.4,8.1,55,0.00,,SKC,0.00,VWS V14.01,2013-01-04 04:01:00,
2013-01-03 23:06:00,28.2,14.1,30.00,West,270,5.6,9.0,55,0.00,,SKC,0.00,VWS V14.01,2013-01-04 04:06:00,
2013-01-03 23:11:00,28.2,14.1,30.00,WSW,248,6.5,6.5,55,0.00,,SKC,0.00,VWS V14.01,2013-01-04 04:11:00,
2013-01-03 23:16:00,28.2,14.1,30.00,WSW,248,6.3,7.8,55,0.00,,SKC,0.00,VWS V14.01,2013-01-04 04:16:00,
2013-01-03 23:21:00,28.0,14.0,30.00,WSW,248,7.2,7.2,55,0.00,,SKC,0.00,VWS V14.01,2013-01-04 04:21:00,
2013-01-03 23:26:00,28.0,14.0,30.00,WSW,248,5.4,7.6,55,0.00,,SKC,0.00,VWS V14.01,2013-01-04 04:26:00,
2013-01-03 23:31:00,27.9,13.8,29.97,West,270,6.3,6.5,55,0.00,,SKC,0.00,VWS V14.01,2013-01-04 04:31:00,
2013-01-03 23:36:00,27.9,13.8,29.97,SW,225,4.9,6.0,55,0.00,,SKC,0.00,VWS V14.01,2013-01-04 04:36:00,
2013-01-03 23:41:00,27.7,13.6,29.97,West,270,4.3,6.5,55,0.00,,SKC,0.00,VWS V14.01,2013-01-04 04:41:00,
2013-01-03 23:46:00,27.5,13.5,29.97,WSW,248,5.6,5.8,55,0.00,,SKC,0.00,VWS V14.01,2013-01-04 04:46:00,
2013-01-03 23:51:00,27.5,13.5,29.97,WSW,248,3.1,6.0,55,0.00,,SKC,0.00,VWS V14.01,2013-01-04 04:51:00,
2013-01-03 23:56:00,27.5,13.5,29.97,West,270,5.4,6.9,55,0.00,,SKC,0.00,VWS V14.01,2013-01-04 04:56:00,